491  
ASHW40 PHFO 181510  
RWRHI  
 
WEATHER ROUNDUP FOR HAWAII  
NATIONAL WEATHER SERVICE HONOLULU HI  
500 AM HST SAT APR 18 2015  
 
THIS IS AN AUTOMATED REPORT THAT HAS NOT BEEN QUALITY CONTROLLED.  
 
NOTE..."FAIR" INDICATES FEW OR NO CLOUDS BELOW 12,000 FEET WITH NO  
SIGNIFICANT WEATHER AND/OR S TO VISIBILITY
.  
 
* - THESE SITES REPORT LIMITED FIELDS  
 
HIZ001>004-181600-  
KAUAI-NIIHAU-  
 
CITY SKY/WX TMP DP RH WIND PRES REMARKS
 
LIHUE APT PTCLDY 74 66 76 NE16 30.11F  
PORT ALLEN* N/A 73 N/A N/A E15G21 N/A  
POIPU* N/A 73 N/A N/A NE9G20 N/A  
PRINCEVILLE* N/A 70 N/A N/A MISG N/A  
KOKOLE POINT* NOT AVBL  
MOLOAA DAIRY* NOT AVBL  
WAIMEA HTS* NOT AVBL  
PUU OPAE* NOT AVBL  
PUU LUA* NOT AVBL  
MAKAHA RIDGE* NOT AVBL  

 
 
HIZ005>011-181600-  
OAHU-  
 
CITY SKY/WX TMP DP RH WIND PRES REMARKS
 
HONOLULU PTCLDY 74 64 71 NE14 30.07S  
KALAELOA CLEAR 71 62 73 VRB5 30.09S  
KANEOHE MCB MOCLDY 75 66 73 E12G17 30.07S  
WHEELER FIELD N/A N/A N/A N/A MISG N/A  
BELLOWS* NOT AVBL  
KAHUKU* NOT AVBL  
WHEELER* NOT AVBL  
WAIANAE HARBOR NOT AVBL  
DILLINGHAM* N/A 64 61 88 MISG N/A  
KAHUKU TRN* N/A 70 64 83 E7G15 N/A  
KAWAILOA* N/A 68 63 83 E10G21 N/A  
KII* N/A 73 66 78 E16G22 N/A  
MAKUA RANGE* N/A 75 61 60 E9G21 N/A  
OAHU FOREST NW NOT AVBL  
SCHOFIELD BRK* N/A N/A N/A N/A CALM N/A  
SCHOFIELD S* NOT AVBL  
WAIANAE VLY* NOT AVBL  
KUAOKALA* NOT AVBL  
HONOULIUULI* NOT AVBL  
MOKUOLOE IS* NOT AVBL  
PALEHUA* NOT AVBL  
WAIAWA PHB* NOT AVBL  

 
 
HIZ012>013-181600-  
MOLOKAI-  
 
CITY SKY/WX TMP DP RH WIND PRES REMARKS
 
MOLOKAI AIRPT PTCLDY 72 62 71 NE10G17 30.08R  
KALAUPAPA NOT AVBL  
MAKAPULAPAI* NOT AVBL  
MOLOKAI 1* NOT AVBL  
PUU ALII* NOT AVBL  

 
 
HIZ016-181600-  
KAHOOLAWE-  
 
CITY SKY/WX TMP DP RH WIND PRES REMARKS
 
KAHOOLAWE* NOT AVBL  
HAKIOAWA* NOT AVBL  
HONOKANAIA* N/A 73 65 74 NE14G35 30.08S  
KANELOA* N/A 72 66 83 MISG 29.28R  
KEALIALALO* NOT AVBL  
LUA MAKIKA* NOT AVBL  

 
 
HIZ014>015-181600-  
LANAI-  
 
CITY SKY/WX TMP DP RH WIND PRES REMARKS
 
LANAI CITY FAIR 64 61 90 E5 30.11S  
LANAI 1* NOT AVBL  

 
 
HIZ017>028-181600-  
MAUI-  
 
CITY SKY/WX TMP DP RH WIND PRES REMARKS
 
KAHULUI PTCLDY 73 64 73 NE15 30.07S  
KAPALUA-W MAUI NOT AVBL  
HANA AIRPORT CLOUDY 72 66 83 S3 30.13S  
HANA* NOT AVBL  
HALEAKALA SUMM N/A 43 -6 13 E15 N/A  
MAALAEA BAY* NOT AVBL  
HALEAKALA* NOT AVBL  
KAUPO GAP* NOT AVBL  
KULA 1* NOT AVBL  

 
 
HIZ023>026-181600-  
BIG ISLAND OF HAWAII COAST AND LOWER SLOPES-  
 
CITY SKY/WX TMP DP RH WIND PRES REMARKS
 
KAILUA KONA CLEAR 73 63 70 CALM 30.01S  
HILO CLEAR 66 62 87 SW8 30.12S  
HONOKAA* NOT AVBL  
KAWAIHAE MWT* NOT AVBL  
KAWAIHAE* N/A 81 N/A N/A NE20G35 N/A  
SOUTH POINT* NOT AVBL  
UPOLU AIRPORT* NOT AVBL  
KAMUELA* SUNNY 61 55 82 NE15 30.14R  
HAKALAU* N/A 46 46 100 S5 N/A  
KALOKO-HONOKO* NOT AVBL  
PALI 2* N/A 61 54 77 N22G35 N/A  
KEALAKOMO* N/A 72 61 68 NE18G25 N/A  
KAUPULEHU* NOT AVBL  
KAPAPALA* N/A 58 54 88 CALM N/A  
LOWER KAHUKU* NOT AVBL  
PUHE CS* NOT AVBL  
PUHO CS* NOT AVBL  
PTA KEAMUKU* N/A 54 46 76 CALM N/A  
WAIKOLOA* NOT AVBL  

 
 
HIZ027>028-181600-  
BIG ISLAND OF HAWAII INTERIOR AND SUMMMITS-  
 
CITY SKY/WX TMP DP RH WIND PRES REMARKS
 
BRADSHAW FIELD CLOUDY 47 45 91 SE8G15 30.33S  
MK VISITOR CEN NOT AVBL  
MAUNA KEA* N/A 34 -20 9 E18 N/A WCI 23  
MAUNA LOA* N/A 39 -9 12 MISG N/A  
MAUNA LOA 1* NOT AVBL  
PTA KIPUKA* N/A 50 39 66 SE5G14 N/A  
PTA RANGE 17* N/A 48 43 81 SE17G26 N/A  
PTA WEST* NOT AVBL  
NENE CABIN* NOT AVBL  
AHUMOA* NOT AVBL  
PTA PORTABLE* NOT AVBL  
PUU MALI* N/A N/A N/A N/A CALM N/A  

 
 
HIC003-181600-  
NORTHWEST ISLANDS-  
 
CITY SKY/WX TMP DP RH WIND PRES REMARKS
 
MIDWAY ISLAND CLEAR 68 64 88 CALM 30.17S  
MIDWAY NOS* NOT AVBL  
FRENCH FRIGATE NOT AVBL  

 
 
PHZ110>124-180-181600-  
BUOY REPORTS  
 
STATION/POSITION TIME TEMP WIND PRES WAVE SWELL
 
AIR SEA DIR/SP/G HT/PER HT/DIR  
(UTC) (F) (DEG/KT/KT) (MB) (FT/S) (FT/D)  
BUOY 51001 NOT AVBL  
BUOY 51101 1500 74 73 90/ 10/ 12 1020.2R 7/11 7/320  
BUOY 51100 1500 73 73 110/ 14/ 17 1020.9R  
BUOY 51002 1500 78 78 70/ 23/ 29 1014.6F 10/ 8 5/ 20  
BUOY 51003 1400 76 78 70/ 12/ 14 1017.1F 6/11 5  
BUOY 51004 1414 76 77 60/ 16/ 23 1016.1R 10/10 8/ 90  
BARBERS PT BUOY NOT AVBL  
WAIMEA BAY BUOY 1500 76 N/A 6/12 3/320  
KAILUA BAY BUOY 1500 76 N/A 8/ 8 2/ 10  
LANAI BUOY 1400 78 N/A 3/12 2/240  
BARBERS PT 2 1500 78 N/A 5/ 7 2/220  
PAUWELA MAUI 1500 76 N/A 7/ 9 3/350  
HILO 1500 77 N/A 8/ 8 3/350  
KANEOHE BAY BUOY 1500 75 N/A 7/ 8 2/340  
HANALEI KAUAI 1500 76 N/A 7/13  
KAHULUI HARBOR 1500 73 77 350/ 3/ 6 1018.1S  
HONOLULU HARBOR 1500 76 77 50/ 5/ 7 1018.5S  
KILO NALU NOT AVBL  
HILO HARBOR 1500 67 76 180/ 3/ 4 1019.5S  
MOKUOLOE 1500 75 77 80/ 11/ 15 1019.1R  
NAWILIWILI 1500 74 60/ 14/ 16 1019.1F  
WHOTS BUOY NOT AVBL  
BUOY 51028 NOT AVBL  

 
   
.....................KEY.....................................
 
 
SKY/WX - SKY CONDITIONS/PRESENT WEATHER  
TMP - TEMPERATURE IN FAHRENHEIT  
DWPT - DEWPOINT IN FAHRENHEIT  
RH - RELATIVE HUMIDITY IN PERCENT  
WIND - DIRECTION AND SPEED /MPH FOR ISLANDS...KTS FOR BUOYS/  
PRES - MEAN SEA LEVEL PRESSURE IN INCHES OF HG  
VSB - VISIBILITY IN MILES  
HX - HEAT INDEX  
WCI - WIND CHILL INDEX  
VRB - VARIABLE WIND DIRECTION  
N/A - NOT AVAILABLE  
 
CLICK HERE TO GO TO PREVIOUS BULLETINS.

The Nexlab HI Page Main Text Page

The Nexlab HI Page Main Text Page